Regional Weather Roundup
Issued by NWS Kansas City/Pleasant Hill, MO

Home | Current Version | Previous Version | Text Only | Print | Product List | Glossary On
Versions: 1 2 3 4 5 6 7 8 9 10 11 12 13 14 15 16 17 18 19 20 21 22 23 24 25 26 27 28 29 30 31 32 33 34 35 36 37 38 39 40 41 42 43 44 45 46 47 48 49 50
000
ASUS43 KEAX 191410
RWREAX

WEATHER ROUNDUP FOR EASTERN KANSAS AND NORTHWEST MISSOURI
NATIONAL WEATHER SERVICE KANSAS CITY/PLEASANT HILL MO
800 AM CST MON FEB 19 2018

KSZ040-057-103>105-MOZ028-029-037-043-191500-
...KANSAS CITY METROPOLITAN AREA...

CITY           SKY/WX    TMP DP  RH WIND       PRES   REMARKS
K.C. INTL      CLOUDY    64  59  83 S17G29    29.64R
K.C. DOWNTOWN  CLOUDY    66  58  75 S15G24    29.65R
LEES SUMMIT    CLOUDY    63  61  93 S20G26    29.67R
OLATHE - IXD   CLOUDY    64  60  87 S21G29    29.66R
OLATHE - OJC   CLOUDY    63  59  87 SW17G25   29.66R
LAWRENCE       CLOUDY    65  60  84 S20G28    29.63R

$$

MOZ001>008-011>017-020>025-030>033-038>040-044>046-053-054-191500-
...NORTHERN AND CENTRAL MISSOURI...

CITY           SKY/WX    TMP DP  RH WIND       PRES   REMARKS
ST. JOSEPH     CLOUDY    46  45  96 NW21G33   29.63R FOG
MOSBY          CLOUDY    64  57  77 S10G20    29.65S
WARRENSBURG    CLOUDY    63  55  77 S16G23    29.70R
WHITEMAN AFB   CLOUDY    64  58  80 S21G29    29.67R
CLINTON        CLOUDY    64  57  77 S25G35    29.73R
SEDALIA        CLOUDY    63  58  83 S16G29    29.75R
WARSAW         NOT AVBL
CHILLICOTHE      N/A     58  57  97 S6        29.67R
KIRKSVILLE     LGT RAIN  49  49 100 SE7       29.71R VSB 1

$$

MOZ041-047>049-056>058-063>065-088>090-097-191500-
...EASTERN AND SOUTHERN MISSOURI...

CITY           SKY/WX    TMP DP  RH WIND       PRES   REMARKS
ST. LOUIS INTL TSTM      59  56  89 S15G23    29.88R FOG
SPIRIT OF STL  TSTM      59  57  93 S15G25    29.85R FOG
COLUMBIA       CLOUDY    59  55  87 S20G26    29.77R
JEFFERSON CITY LGT RAIN  61  55  81 S13G26    29.79R
ROLLA          LGT RAIN  57  56  96 S18G30    29.84R
OSAGE BEACH    PTSUNNY   58  55  90 S12G22    29.81R
SPRINGFIELD    CLOUDY    58  56  93 S12       29.86R
BRANSON        CLOUDY    61  55  82 S14G28    29.89R
JOPLIN         LGT RAIN  61  60  97 S22G32    29.77R
WEST PLAINS    CLOUDY    57  55  93 S14G23    29.94R

$$

IAZ060-094-KSZ022-034>040-054-083-096-NEZ052-066-093-191500-
...KANSAS...SOUTHEAST NEBRASKA AND IOWA...

CITY           SKY/WX    TMP DP  RH WIND       PRES   REMARKS
TOPEKA         CLOUDY    44  41  89 W14       29.68R
MANHATTAN      CLOUDY    33  29  85 N8        29.75R WCI  26
EMPORIA        CLOUDY    46  40  79 W14G22    29.69R
CHANUTE        CLOUDY    64  60  87 S17G31    29.71R
WICHITA        CLOUDY    38  31  76 N21G26    29.73R WCI  28
OMAHA          FRZ DRZL  27  24  89 N23G31    29.75R FOG     WCI  12
LINCOLN        FLURRIES  23  20  88 N24G32    29.79R WCI   7
FALLS CITY     CLOUDY    31  30  96 NW20G30   29.69R FOG     WCI  19
LAMONI         FOG       49  48  97 SE6       29.62R VSB 1/4
DES MOINES     LGT RAIN  46  44  93 CALM      29.66R VSB 1

$$




USA.gov is the U.S. government's official web portal to all federal, state and local government web resources and services.